Погода в Прикумском

Россия / Республика Калмыкия     45°15′05″N   45°49′05″E
темп.,
°C
ветер,
м/с
пор.,
м/с
влажн.,
%
обл.,
%
осадки,
мм/ч
давл.,
гПа
погр.,
м
17 апреля, сб
сб1700:00+15ю225389 0.0 101914
03:00+14ююв2250100 0.0 101912
06:00+14юв344917 0.0 101872
09:00+19юв3536100 0.0 1019554
12:00+21вюв1228100 0.0 10191677
15:00+22ссз1229100 0.0 10191936
18:00+18ссз8950100 0.0 1020723
21:00+13ссз7978100 0.2 1022450
18 апреля, вс
вс1800:00+13ссз5682100 0.8 1021353
03:00+12ссз4583100 0.9 1021342
06:00+12ссв2381100 0.0 1021259
09:00+14св1172100 0.0 1020543
12:00+15всв2369100 0.5 1019676
15:00+16св2363100 0.5 1019697
18:00+16ссв4567100 0.0 1019314
21:00+15ссв227198 0.0 102096
19 апреля, пн
пн1900:00+14всв347516 0.1 1018126
03:00+12вюв228487 0.1 101817
06:00+13юв3480100 0.0 1017120
09:00+16ююв4464100 0.0 1018477
12:00+20ююв4449100 0.0 1016877
15:00+22юв3443100 0.0 10151081
18:00+20юв7947100 0.0 1015423
21:00+16юв61160100 0.0 1015307
20 апреля, вт
вт2000:00+15юв61164100 0.0 1013350
03:00+14вюв71469100 0.0 1012347
06:00+14вюв71664100 0.0 1011493
09:00+19вюв121848100 0.0 1009791
12:00+21юв141941100 0.0 1007928
15:00+20вюв121947100 0.0 1006903
18:00+19вюв71350100 0.0 1009824
21:00+16в3355100 0.0 101180
21 апреля, ср
ср2100:00+16ссз6960100 0.0 1013450
03:00+15с91555100 0.1 1015664
06:00+11ссз81285100 1.1 1018528
09:00+13ссз6871100 1.2 1019624
12:00+18ссз6748100 0.0 10191192
15:00+17сз8847100 0.0 10191442
18:00+14сз81162100 0.0 1020504
21:00+13сз71167100 0.0 1021384